THOR ABLESTAR DEB, 406

Orbit data source: Space-Track

THOR ABLESTAR DEB, 406 is space debris in LEO originally from a launch on Thu, 29 Jun 1961 UTC launched from the Air Force Eastern Test Range (AFETR). Debris objects in space refer to the collection of defunct objects orbiting the Earth. Examples of debris include non-operational satellites, rocket bodies, and fragments generated from explosions, collisions, or faulty payload assembly.

Loading next visibility...
Identifier
406, 1961-015EF
Orbit
LEO
Country
Flag of USUS
Related business
Manufacturer
Unknown
Mission
Spacecraft
Bus & Motor
Unknown
Mass
Unknown
Launch date (UTC)
1961-06-29 (65 years ago)
Launch vehicle
Unknown
Launch site
Air Force Eastern Test Range (AFETR)
Object type
Payload
Rocket body
Debris
Shape & HBR
Unknown shape, 0.1 m
Radar Cross Section
Medium (>0.1 m² and <1 m²)

Expand to show TLE details & history
Last TLE update: 22 hours ago

TLE from 22 hours ago
0 THOR ABLESTAR DEB
1 00406U 61015EF  26235.34391381  .00000345  00000-0  45524-3 0  9998
2 00406  66.7770 194.9759 0117542 347.4798 166.5218 13.69669602230395
Epoch: 2026-08-23T08:15Z
TLE epoch observation values (Epoch: 2026-08-23T08:15:14.153Z)
Latitude
23.51036°
Longitude
-91.17661°
Altitude
1,087.161 km
Speed
7.269 km/s
True Right ascension
00h 17m 05s
True Declination
23° 23' 25"
Sunlit
Object was in full shadow at epoch
Visualization orbit readout
Latitude
Unknown
Longitude
Unknown
Altitude
Unknown
Speed
Unknown
Apparent Right ascension
Unknown
Apparent Declination
Unknown
Sunlit
N/A
Visualization observer readout
Local Sidereal Time
21:49:58
Azimuth
Unknown
Elevation
Unknown
Doppler factor
Unknown
Orbital elements
Apogee altitude
1,085.884 km
Perigee altitude
912.455 km
Semi-major axis
7,377.307 km
Eccentricity
0.01175
Inclination
66.777°
RAAN
194.9759°
Arg. of periapsis
347.4798°
True anomaly
166.83131°
Mean anomaly
166.5218°
Eccentric anomaly
166.67699°
Mean motion
3.42528 °/min
Orbital period
105.1 mins
BSTAR
0.00045524
Loading maneuver chart data...
Computing Atmospheric mass density...

Documentation

Showing up to 5 results
|